Location: Namasale
(1.5000°N, 32.6167°E)
Time: 17:50:48
(UTC+00:00)

Courier 1B - Pass Details

Date: 20 April 2021
Orbit: 962 x 1209 km, 28.3° (Epoch: 18 May)

Event Time Altitude Azimuth Distance (km) Brightness Sun altitude
Rises 09:51:03 0° 291° (WNW) 3,767 10.6 79.8°
Reaches altitude 10° 09:56:40 10° 328° (NNW) 2,749 10.2 79.6°
Maximum altitude 09:58:03 11° 340° (NNW) 2,689 10.1 79.6°
Drops below altitude 10° 09:59:24 10° 352° (N) 2,723 10.2 79.5°
Sets 10:04:51 0° 29° (NNE) 3,635 10.6 79.0°
